Weather Service Report


183 
ASUS44 KOUN 250210
RWROK 

WEATHER ROUNDUP FOR OKLAHOMA
NATIONAL WEATHER SERVICE NORMAN OK
900 PM CDT THU JUL 24 2014

NOTE: "FAIR" INDICATES FEW OR NO CLOUDS BELOW 12,000 FEET WITH NO
      SIGNIFICANT WEATHER AND/OR OBSTRUCTIONS TO VISIBILITY.

OKZ001>007-009>012-014-015-017-250300-
NORTHWEST OKLAHOMA AND THE PANHANDLE
  
CITY           SKY/WX    TMP DP  RH WIND       PRES   REMARKS
GAGE           CLEAR     86  68  54 S9        29.97R                  
ENID/WOODRING  PTCLDY    84  73  70 SE8       29.94S HX  91           
$$

OKZ016-021>023-033>039-044-045-250300-
SOUTHWEST OKLAHOMA
  
CITY           SKY/WX    TMP DP  RH WIND       PRES   REMARKS
LAWTON/REGL    CLEAR     91  66  43 SE8       29.96R HX  93           
LAWTON/FT SILL CLEAR     89  68  49 SE8       29.96R HX  92           
FREDERICK      CLEAR     89  69  51 SE12      29.94R HX  93           
CLINTON        PTCLDY    89  65  44 S13       30.00R HX  91           
HOBART         PTCLDY    85  67  54 S9        29.98R                  
ALTUS AFB      PTCLDY    85  71  63 SE9       29.95R HX  90           
$$

OKZ018>020-024>031-250300-
CENTRAL OKLAHOMA
  
CITY           SKY/WX    TMP DP  RH WIND       PRES   REMARKS
OKLAHOMA CITY  PTCLDY    83  70  64 SE8       29.98R                  
OKC/WILEY POST CLEAR     86  71  60 SE14      29.98R HX  91           
OKC/TINKER AFB CLEAR     81  71  71 SE6       29.99R                  
STILLWATER     CLEAR     84  72  67 S9        29.96R                  
GUTHRIE        CLEAR     84  72  67 SE7       29.97R                  
$$

OKZ008-013-054>072-250300-
NORTHEAST OKLAHOMA
  
CITY           SKY/WX    TMP DP  RH WIND       PRES   REMARKS
TULSA          PTCLDY    83  72  69 SE8       29.97R                  
TULSA/JONES    CLEAR     83  73  72 SE7       29.97R                  
PONCA CITY     CLEAR     85  71  63 SE10      29.95R HX  90           
BARTLESVILLE   CLEAR     81  70  69 SE6       29.98S                  
MUSKOGEE       CLEAR     78  71  79 E6        29.99S                  
$$

OKZ032-040>043-046>053-073>077-250300-
SOUTH CENTRAL/SOUTHEAST OKLAHOMA
  
CITY           SKY/WX    TMP DP  RH WIND       PRES   REMARKS
ARDMORE/DWNTWN CLEAR     82  66  57 CALM      29.97S                  
MCALESTER      CLEAR     80  73  79 E3        29.98S                  
$$


Return to Home page


Western Regional Climate Center, wrcc@dri.edu